Location: Kermapucano
(48.0667°N, 3.3000°W)
Time: 20:49:55
(UTC+00:00)

ALOS - Pass Details

Date: 29 November 2020
Orbit: 682 x 686 km, 97.9° (Epoch: 27 January)

Event Time Altitude Azimuth Distance (km) Brightness Sun altitude
Rises 05:25:02 0° 8° (N) 3,066 5.6 -21.8°
Reaches altitude 10° 05:27:20 10° 3° (N) 2,145 4.8 -21.5°
Enters shadow 05:31:46 48° 293° (WNW) 893 2.4 -20.7°
